Time,TemperatureF,DewpointF,PressureIn,WindDirection,WindDirectionDegrees,WindSpeedMPH,WindSpeedGustMPH,Humidity,HourlyPrecipIn,Conditions,Clouds,dailyrainin,SoftwareType,DateUTC
2013-02-04 00:07:00,54.0,52.0,30.11,NW,305,0.0,1.0,93,0.00,,,0.00,weatherlink.com 1.10,2013-02-04 05:07:00,
2013-02-04 00:22:00,53.8,52.0,30.12,NW,304,0.0,0.0,94,0.00,,,0.00,weatherlink.com 1.10,2013-02-04 05:22:00,
2013-02-04 00:37:00,53.5,52.0,30.11,NW,305,0.0,0.0,95,0.00,,,0.00,weatherlink.com 1.10,2013-02-04 05:37:00,
2013-02-04 00:52:00,52.9,52.0,30.11,NW,304,0.0,0.0,95,0.00,,,0.00,weatherlink.com 1.10,2013-02-04 05:52:00,
2013-02-04 01:07:00,52.5,51.0,30.11,NW,304,0.0,0.0,95,0.00,,,0.00,weatherlink.com 1.10,2013-02-04 06:07:00,
2013-02-04 01:22:00,52.6,51.0,30.11,NW,305,0.0,0.0,95,0.00,,,0.00,weatherlink.com 1.10,2013-02-04 06:22:00,
2013-02-04 01:37:00,52.7,52.0,30.11,NNW,347,1.0,1.0,96,0.00,,,0.00,weatherlink.com 1.10,2013-02-04 06:37:00,
2013-02-04 01:52:00,53.1,52.0,30.11,North,9,0.0,2.0,96,0.00,,,0.00,weatherlink.com 1.10,2013-02-04 06:52:00,
2013-02-04 02:07:00,52.8,52.0,30.11,North,9,1.0,1.0,96,0.00,,,0.00,weatherlink.com 1.10,2013-02-04 07:07:00,
2013-02-04 02:22:00,53.0,52.0,30.11,North,9,0.0,2.0,96,0.00,,,0.00,weatherlink.com 1.10,2013-02-04 07:22:00,
2013-02-04 02:37:00,52.4,51.0,30.11,North,9,0.0,0.0,96,0.00,,,0.00,weatherlink.com 1.10,2013-02-04 07:37:00,
2013-02-04 02:52:00,51.7,51.0,30.11,North,8,0.0,0.0,96,0.00,,,0.00,weatherlink.com 1.10,2013-02-04 07:52:00,
2013-02-04 03:07:00,51.7,51.0,30.11,North,1,2.0,2.0,97,0.00,,,0.00,weatherlink.com 1.10,2013-02-04 08:07:00,
2013-02-04 03:22:00,51.6,51.0,30.11,NW,313,2.0,4.0,97,0.00,,,0.00,weatherlink.com 1.10,2013-02-04 08:22:00,
2013-02-04 03:37:00,51.0,50.0,30.11,NNE,15,1.0,4.0,97,0.00,,,0.00,weatherlink.com 1.10,2013-02-04 08:37:00,
2013-02-04 03:52:00,50.5,50.0,30.10,NE,50,1.0,6.0,97,0.00,,,0.00,weatherlink.com 1.10,2013-02-04 08:52:00,
2013-02-04 04:07:00,49.5,48.0,30.11,North,360,1.0,4.0,96,0.00,,,0.00,weatherlink.com 1.10,2013-02-04 09:07:00,
2013-02-04 04:22:00,48.7,48.0,30.11,North,9,1.0,3.0,97,0.00,,,0.00,weatherlink.com 1.10,2013-02-04 09:22:00,
2013-02-04 04:37:00,48.5,48.0,30.11,NW,323,1.0,3.0,97,0.00,,,0.00,weatherlink.com 1.10,2013-02-04 09:37:00,
2013-02-04 04:52:00,48.4,48.0,30.11,North,354,0.0,2.0,97,0.00,,,0.00,weatherlink.com 1.10,2013-02-04 09:52:00,
2013-02-04 05:07:00,48.1,47.0,30.11,North,351,0.0,1.0,97,0.00,,,0.00,weatherlink.com 1.10,2013-02-04 10:07:00,
2013-02-04 05:22:00,47.8,47.0,30.12,North,355,0.0,0.0,97,0.00,,,0.00,weatherlink.com 1.10,2013-02-04 10:22:00,
2013-02-04 05:37:00,47.3,47.0,30.12,North,355,0.0,0.0,97,0.00,,,0.00,weatherlink.com 1.10,2013-02-04 10:37:00,
2013-02-04 05:52:00,47.2,46.0,30.11,North,359,1.0,2.0,97,0.00,,,0.00,weatherlink.com 1.10,2013-02-04 10:52:00,
2013-02-04 06:07:00,47.3,47.0,30.12,NNW,340,0.0,1.0,97,0.01,,,0.01,weatherlink.com 1.10,2013-02-04 11:07:00,
2013-02-04 06:22:00,46.5,46.0,30.12,NNW,340,0.0,0.0,97,0.01,,,0.01,weatherlink.com 1.10,2013-02-04 11:22:00,
2013-02-04 06:37:00,46.0,45.0,30.12,NNW,340,0.0,0.0,97,0.01,,,0.01,weatherlink.com 1.10,2013-02-04 11:37:00,
2013-02-04 06:52:00,45.3,45.0,30.13,NNW,340,0.0,0.0,97,0.01,,,0.01,weatherlink.com 1.10,2013-02-04 11:52:00,
2013-02-04 07:07:00,43.9,43.0,30.13,NNW,340,0.0,0.0,97,0.00,,,0.01,weatherlink.com 1.10,2013-02-04 12:07:00,
2013-02-04 07:22:00,43.8,43.0,30.14,NNW,340,0.0,0.0,98,0.00,,,0.01,weatherlink.com 1.10,2013-02-04 12:22:00,
2013-02-04 07:37:00,45.8,45.0,30.14,NNW,340,0.0,0.0,98,0.00,,,0.01,weatherlink.com 1.10,2013-02-04 12:37:00,
2013-02-04 07:52:00,49.6,49.0,30.15,NNW,340,0.0,0.0,98,0.00,,,0.01,weatherlink.com 1.10,2013-02-04 12:52:00,
2013-02-04 08:07:00,49.4,49.0,30.14,NE,50,0.0,0.0,97,0.00,,,0.01,weatherlink.com 1.10,2013-02-04 13:07:00,
2013-02-04 08:22:00,50.7,50.0,30.14,ENE,74,0.0,2.0,97,0.00,,,0.01,weatherlink.com 1.10,2013-02-04 13:22:00,
2013-02-04 08:37:00,52.9,50.0,30.15,ENE,64,0.0,2.0,89,0.00,,,0.01,weatherlink.com 1.10,2013-02-04 13:37:00,
2013-02-04 08:52:00,54.7,48.0,30.15,ENE,64,1.0,3.0,78,0.00,,,0.01,weatherlink.com 1.10,2013-02-04 13:52:00,
2013-02-04 09:08:00,56.1,49.0,30.16,NE,52,1.0,2.0,77,0.00,,,0.01,weatherlink.com 1.10,2013-02-04 14:08:00,
2013-02-04 09:23:00,56.9,48.0,30.16,ENE,63,0.0,3.0,73,0.00,,,0.01,weatherlink.com 1.10,2013-02-04 14:23:00,
2013-02-04 09:38:00,58.5,49.0,30.16,NNE,18,2.0,5.0,71,0.00,,,0.01,weatherlink.com 1.10,2013-02-04 14:38:00,
2013-02-04 09:53:00,59.6,47.0,30.16,ENE,57,5.0,6.0,63,0.00,,,0.01,weatherlink.com 1.10,2013-02-04 14:53:00,
2013-02-04 10:08:00,61.0,45.0,30.16,NE,52,4.0,6.0,57,0.00,,,0.01,weatherlink.com 1.10,2013-02-04 15:08:00,
2013-02-04 10:23:00,61.7,45.0,30.15,East,91,4.0,7.0,54,0.00,,,0.01,weatherlink.com 1.10,2013-02-04 15:23:00,
2013-02-04 10:38:00,62.2,41.0,30.16,ENE,69,4.0,7.0,46,0.00,,,0.01,weatherlink.com 1.10,2013-02-04 15:38:00,
2013-02-04 10:53:00,62.2,43.0,30.15,ENE,73,5.0,8.0,50,0.00,,,0.01,weatherlink.com 1.10,2013-02-04 15:53:00,
2013-02-04 11:08:00,62.7,44.0,30.14,East,80,6.0,7.0,50,0.00,,,0.01,weatherlink.com 1.10,2013-02-04 16:08:00,
2013-02-04 11:23:00,63.3,42.0,30.13,NE,44,3.0,9.0,46,0.00,,,0.01,weatherlink.com 1.10,2013-02-04 16:23:00,
2013-02-04 11:38:00,64.3,43.0,30.13,East,91,3.0,6.0,47,0.00,,,0.01,weatherlink.com 1.10,2013-02-04 16:38:00,
2013-02-04 11:53:00,65.0,40.0,30.13,NE,55,1.0,6.0,40,0.00,,,0.01,weatherlink.com 1.10,2013-02-04 16:53:00,
2013-02-04 12:08:00,66.3,41.0,30.12,ESE,108,3.0,7.0,40,0.00,,,0.01,weatherlink.com 1.10,2013-02-04 17:08:00,
2013-02-04 12:23:00,66.2,40.0,30.11,ESE,114,3.0,8.0,38,0.00,,,0.01,weatherlink.com 1.10,2013-02-04 17:23:00,
2013-02-04 12:38:00,66.7,38.0,30.11,ESE,111,4.0,7.0,35,0.00,,,0.01,weatherlink.com 1.10,2013-02-04 17:38:00,
2013-02-04 12:53:00,67.1,39.0,30.11,East,82,2.0,7.0,36,0.00,,,0.01,weatherlink.com 1.10,2013-02-04 17:53:00,
2013-02-04 13:08:00,67.7,37.0,30.09,ENE,58,0.0,4.0,33,0.00,,,0.01,weatherlink.com 1.10,2013-02-04 18:08:00,
2013-02-04 13:23:00,68.8,38.0,30.08,ESE,102,0.0,5.0,32,0.00,,,0.00,weatherlink.com 1.10,2013-02-04 18:23:00,
2013-02-04 13:38:00,69.2,37.0,30.07,SE,138,1.0,7.0,31,0.00,,,0.00,weatherlink.com 1.10,2013-02-04 18:38:00,
2013-02-04 13:53:00,69.4,37.0,30.06,SSE,163,2.0,4.0,31,0.00,,,0.00,weatherlink.com 1.10,2013-02-04 18:53:00,
2013-02-04 14:08:00,71.0,34.0,30.05,SE,142,3.0,3.0,26,0.00,,,0.00,weatherlink.com 1.10,2013-02-04 19:08:00,
2013-02-04 14:23:00,71.0,35.0,30.05,SSE,153,2.0,6.0,27,0.00,,,0.00,weatherlink.com 1.10,2013-02-04 19:23:00,
2013-02-04 14:38:00,70.9,37.0,30.05,SE,124,2.0,5.0,29,0.00,,,0.00,weatherlink.com 1.10,2013-02-04 19:38:00,
2013-02-04 14:53:00,72.2,36.0,30.05,SW,224,5.0,6.0,27,0.00,,,0.00,weatherlink.com 1.10,2013-02-04 19:53:00,
2013-02-04 15:08:00,71.6,33.0,30.04,South,187,3.0,6.0,24,0.00,,,0.00,weatherlink.com 1.10,2013-02-04 20:08:00,
2013-02-04 15:23:00,72.3,29.0,30.04,SW,235,3.0,5.0,20,0.00,,,0.00,weatherlink.com 1.10,2013-02-04 20:23:00,
2013-02-04 15:38:00,73.1,27.0,30.04,West,267,2.0,5.0,18,0.00,,,0.00,weatherlink.com 1.10,2013-02-04 20:38:00,
2013-02-04 15:53:00,72.8,25.0,30.04,SE,139,2.0,6.0,17,0.00,,,0.00,weatherlink.com 1.10,2013-02-04 20:53:00,
2013-02-04 16:08:00,73.1,26.0,30.04,SW,226,1.0,6.0,17,0.00,,,0.00,weatherlink.com 1.10,2013-02-04 21:08:00,
2013-02-04 16:23:00,72.7,28.0,30.04,SW,225,2.0,6.0,19,0.00,,,0.00,weatherlink.com 1.10,2013-02-04 21:23:00,
2013-02-04 16:38:00,73.0,27.0,30.04,West,278,1.0,6.0,18,0.00,,,0.00,weatherlink.com 1.10,2013-02-04 21:38:00,
2013-02-04 16:53:00,72.4,26.0,30.04,SW,229,1.0,6.0,18,0.00,,,0.00,weatherlink.com 1.10,2013-02-04 21:53:00,
2013-02-04 17:08:00,71.1,28.0,30.04,WSW,253,1.0,6.0,20,0.00,,,0.00,weatherlink.com 1.10,2013-02-04 22:08:00,
2013-02-04 17:23:00,69.8,39.0,30.04,West,276,5.0,7.0,32,0.00,,,0.00,weatherlink.com 1.10,2013-02-04 22:23:00,
2013-02-04 17:38:00,68.5,40.0,30.05,WNW,293,3.0,7.0,35,0.00,,,0.00,weatherlink.com 1.10,2013-02-04 22:38:00,
2013-02-04 17:53:00,66.5,43.0,30.05,West,271,4.0,5.0,43,0.00,,,0.00,weatherlink.com 1.10,2013-02-04 22:53:00,
2013-02-04 18:08:00,64.6,44.0,30.05,West,273,1.0,5.0,48,0.00,,,0.00,weatherlink.com 1.10,2013-02-04 23:08:00,
2013-02-04 18:23:00,62.7,45.0,30.05,West,276,2.0,3.0,53,0.00,,,0.00,weatherlink.com 1.10,2013-02-04 23:23:00,
2013-02-04 18:39:00,61.4,46.0,30.06,WNW,282,2.0,2.0,57,0.00,,,0.00,weatherlink.com 1.10,2013-02-04 23:39:00,
2013-02-04 18:54:00,60.4,46.0,30.06,West,280,0.0,1.0,60,0.00,,,0.00,weatherlink.com 1.10,2013-02-04 23:54:00,
2013-02-04 19:09:00,59.3,47.0,30.06,West,280,0.0,2.0,64,0.00,,,0.00,weatherlink.com 1.10,2013-02-05 00:09:00,
2013-02-04 19:24:00,58.1,47.0,30.06,West,280,0.0,0.0,67,0.00,,,0.00,weatherlink.com 1.10,2013-02-05 00:24:00,
2013-02-04 19:39:00,57.6,47.0,30.06,West,279,0.0,1.0,69,0.00,,,0.00,weatherlink.com 1.10,2013-02-05 00:39:00,
2013-02-04 19:54:00,57.1,48.0,30.07,West,280,0.0,1.0,71,0.00,,,0.00,weatherlink.com 1.10,2013-02-05 00:54:00,
2013-02-04 20:09:00,57.2,48.0,30.07,West,280,0.0,1.0,71,0.00,,,0.00,weatherlink.com 1.10,2013-02-05 01:09:00,
2013-02-04 20:24:00,57.1,48.0,30.08,WNW,293,0.0,1.0,71,0.00,,,0.00,weatherlink.com 1.10,2013-02-05 01:24:00,
2013-02-04 20:39:00,57.5,49.0,30.08,WNW,302,0.0,2.0,72,0.00,,,0.00,weatherlink.com 1.10,2013-02-05 01:39:00,
2013-02-04 20:54:00,57.3,48.0,30.07,WNW,302,0.0,0.0,71,0.00,,,0.00,weatherlink.com 1.10,2013-02-05 01:54:00,
2013-02-04 21:09:00,56.2,48.0,30.08,WNW,302,0.0,0.0,74,0.00,,,0.00,weatherlink.com 1.10,2013-02-05 02:09:00,
2013-02-04 21:24:00,55.2,48.0,30.07,WNW,302,0.0,0.0,76,0.00,,,0.00,weatherlink.com 1.10,2013-02-05 02:24:00,
2013-02-04 21:39:00,54.6,48.0,30.07,NW,306,0.0,3.0,78,0.00,,,0.00,weatherlink.com 1.10,2013-02-05 02:39:00,
2013-02-04 21:54:00,53.9,48.0,30.08,NW,308,0.0,0.0,80,0.00,,,0.00,weatherlink.com 1.10,2013-02-05 02:54:00,
2013-02-04 22:09:00,53.6,49.0,30.08,NW,308,0.0,1.0,83,0.00,,,0.00,weatherlink.com 1.10,2013-02-05 03:09:00,
2013-02-04 22:24:00,53.5,49.0,30.08,NW,308,0.0,1.0,83,0.00,,,0.00,weatherlink.com 1.10,2013-02-05 03:24:00,
2013-02-04 22:39:00,53.7,49.0,30.08,NW,317,0.0,1.0,84,0.00,,,0.00,weatherlink.com 1.10,2013-02-05 03:39:00,
2013-02-04 22:54:00,53.8,49.0,30.09,NNW,340,0.0,1.0,84,0.00,,,0.00,weatherlink.com 1.10,2013-02-05 03:54:00,
2013-02-04 23:09:00,54.3,49.0,30.09,North,8,1.0,3.0,82,0.00,,,0.00,weatherlink.com 1.10,2013-02-05 04:09:00,
2013-02-04 23:24:00,54.8,48.0,30.09,NNW,338,1.0,2.0,79,0.00,,,0.00,weatherlink.com 1.10,2013-02-05 04:24:00,
2013-02-04 23:39:00,55.1,48.0,30.09,North,359,1.0,5.0,78,0.00,,,0.00,weatherlink.com 1.10,2013-02-05 04:39:00,
2013-02-04 23:54:00,54.9,49.0,30.08,NNE,18,0.0,2.0,79,0.00,,,0.00,weatherlink.com 1.10,2013-02-05 04:54:00,